This is the latest recevied weather packets stored in our database for station/object WA9SDJ-13. If no packets are shown the sender has not sent any weather packets the latest 10 day(s).
| Time | Temp. | Humidity | Pressure | Rain* | Wind** | Luminosity | Snow |
|---|---|---|---|---|---|---|---|
| 1778354803 | 22.78° C | 64% | 1006.9 hPa | 0 mm | - | 884 W/m² | - |
| 1778354743 | 22.78° C | 63% | 1006.8 hPa | 0 mm | - | 886 W/m² | - |
| 1778354683 | 22.78° C | 64% | 1006.8 hPa | 0 mm | - | 888 W/m² | - |
| 1778354623 | 22.78° C | 66% | 1006.9 hPa | 0 mm | - | 890 W/m² | - |
| 1778354563 | 22.78° C | 65% | 1006.8 hPa | 0 mm | - | 890 W/m² | - |
| 1778354503 | 22.78° C | 66% | 1006.9 hPa | 0 mm | - | 890 W/m² | - |
| 1778354444 | 22.78° C | 65% | 1006.9 hPa | 0 mm | - | 890 W/m² | - |
| 1778354384 | 22.78° C | 66% | 1006.9 hPa | 0 mm | - | 892 W/m² | - |
| 1778354323 | 22.78° C | 66% | 1007 hPa | 0 mm | - | 893 W/m² | - |
| 1778354263 | 22.78° C | 66% | 1006.9 hPa | 0 mm | - | 897 W/m² | - |
| 1778354203 | 22.78° C | 66% | 1006.8 hPa | 0 mm | - | 895 W/m² | - |
| 1778354143 | 22.78° C | 64% | 1006.9 hPa | 0 mm | - | 897 W/m² | - |
| 1778354083 | 22.78° C | 62% | 1006.9 hPa | 0 mm | - | 898 W/m² | - |
| 1778354023 | 22.78° C | 64% | 1007 hPa | 0 mm | - | 900 W/m² | - |
| 1778353963 | 22.78° C | 67% | 1007 hPa | 0 mm | - | 904 W/m² | - |
| 1778353903 | 22.78° C | 68% | 1007 hPa | 0 mm | - | 906 W/m² | - |
| 1778353843 | 22.78° C | 63% | 1007 hPa | 0 mm | - | 909 W/m² | - |
| 1778353783 | 22.78° C | 64% | 1007 hPa | 0 mm | - | 909 W/m² | - |
| 1778353723 | 22.78° C | 62% | 1007 hPa | 0 mm | - | 911 W/m² | - |
| 1778353663 | 22.78° C | 67% | 1006.9 hPa | 0 mm | - | 913 W/m² | - |
| 1778353602 | 22.78° C | 68% | 1006.9 hPa | 0 mm | - | 911 W/m² | - |
| 1778353543 | 22.78° C | 68% | 1007 hPa | 0 mm | - | 913 W/m² | - |
| 1778353483 | 22.78° C | 69% | 1006.9 hPa | 0 mm | - | 914 W/m² | - |
| 1778353423 | 22.78° C | 71% | 1007 hPa | 0 mm | - | 916 W/m² | - |
| 1778353363 | 22.78° C | 68% | 1007 hPa | 0 mm | - | 914 W/m² | - |
* Rain latest hour (hover to see other rain measurements)
** Current wind speed in m/s (hover to see current wind gust speed)